Weather History for Langdon, ND

Change the Weather History Date:

Monday, January 21, 2013

  Actual Average (KDVL) Record (KDVL)
Temperature  
Mean Temperature -18 °F -  
Max Temperature -13 °F 21 °F 42 °F (1968)
Min Temperature -23 °F 0 °F -36 °F (1954)
Degree Days  
Heating Degree Days 82    
Moisture  
Dew Point -25 °F    
Average Humidity 73    
Maximum Humidity 77    
Minimum Humidity 64    
Precipitation  
Precipitation 0.00 in - - ()
Sea Level Pressure  
Sea Level Pressure 30.19 in    
Wind  
Wind Speed 16 mph (WNW)    
Max Wind Speed 22 mph    
Max Gust Speed 26 mph    
Visibility 8 miles    
Events      
Averages and records for this station are not official NWS values.
T = Trace of Precipitation, MM = Missing Value Source: NWS Daily Summary

Daily Weather History Graph

Daily Weather History Graph

Search for Another Location

Airport:

Trip Planner

Search our weather history database for the weather conditions in past years. The results will help you decide how hot, cold, wet, or windy it might be!

Date:

Astronomy

Jan. 21, 2013 Rise Set
Actual Time 8:15 AM CST 5:14 PM CST
Civil Twilight 7:40 AM CST 5:49 PM CST
Nautical Twilight 7:02 AM CST 6:28 PM CST
Astronomical Twilight 6:24 AM CST 7:05 PM CST
Moon 12:53 PM CST (1/21) 3:46 AM CST (1/21)
Length of Visible Light 10h 08m
Length of Day
8h 58m
Waxing Gibbous, 75% of the Moon is Illuminated
Jan 21
Waxing Gibbous
Jan 26
Full
Feb 3
Last Quarter
Feb 10
New
Feb 17
First Quarter

Hourly Weather History & Observations

Time (CST) Temp. Windchill Dew Point Humidity Pressure Visibility Wind Dir Wind Speed Gust Speed Precip Events Conditions
12:15 AM -18.4 °F -44.5 °F -25.6 °F 70% 30.24 in 10.0 mi NW 17.3 mph - N/A   Clear
12:35 AM -20.2 °F -45.2 °F -25.6 °F 76% 30.24 in 10.0 mi NW 15.0 mph - N/A   Clear
12:55 AM -20.2 °F -44.4 °F -25.6 °F 76% 30.24 in 8.0 mi NW 13.8 mph - N/A   Partly Cloudy
1:15 AM -20.2 °F -46.0 °F -27.4 °F 69% 30.23 in 9.0 mi NW 16.1 mph - N/A   Clear
1:35 AM -20.2 °F -47.5 °F -25.6 °F 76% 30.23 in 7.0 mi NW 18.4 mph 23.0 mph N/A   Clear
1:55 AM -20.2 °F -46.8 °F -27.4 °F 69% 30.23 in 8.0 mi NW 17.3 mph 23.0 mph N/A   Clear
2:15 AM -20.2 °F -47.5 °F -27.4 °F 69% 30.23 in 10.0 mi NW 18.4 mph - N/A   Clear
2:35 AM -20.2 °F -46.0 °F -27.4 °F 69% 30.23 in 10.0 mi NW 16.1 mph - N/A   Clear
2:55 AM -20.2 °F -48.2 °F -27.4 °F 69% 30.23 in 8.0 mi WNW 19.6 mph - N/A   Clear
3:15 AM -22.0 °F -49.9 °F -27.4 °F 76% 30.22 in 10.0 mi NW 18.4 mph - N/A   Clear
3:35 AM -22.0 °F -47.5 °F -29.2 °F 69% 30.22 in 10.0 mi NW 15.0 mph - N/A   Clear
3:55 AM -22.0 °F -48.4 °F -29.2 °F 69% 30.21 in 10.0 mi NW 16.1 mph - N/A   Clear
4:15 AM -22.0 °F -50.6 °F -27.4 °F 76% 30.21 in 10.0 mi NW 19.6 mph - N/A   Clear
4:35 AM -22.0 °F -51.3 °F -27.4 °F 76% 30.20 in 7.0 mi WNW 20.7 mph - N/A   Clear
4:55 AM -22.0 °F -49.1 °F -27.4 °F 76% 30.20 in 10.0 mi WNW 17.3 mph - N/A   Clear
5:15 AM -20.2 °F -47.5 °F -27.4 °F 69% 30.20 in 7.0 mi WNW 18.4 mph - N/A   Clear
5:35 AM -20.2 °F -46.8 °F -27.4 °F 69% 30.20 in 10.0 mi WNW 17.3 mph - N/A   Clear
5:55 AM -20.2 °F -46.8 °F -27.4 °F 69% 30.19 in 10.0 mi WNW 17.3 mph - N/A   Clear
6:15 AM -20.2 °F -45.2 °F -27.4 °F 69% 30.19 in 10.0 mi WNW 15.0 mph - N/A   Clear
6:35 AM -20.2 °F -45.2 °F -27.4 °F 69% 30.19 in 10.0 mi WNW 15.0 mph - N/A   Partly Cloudy
6:55 AM -22.0 °F -46.6 °F -27.4 °F 76% 30.19 in 10.0 mi WNW 13.8 mph - N/A   Mostly Cloudy
7:15 AM -22.0 °F -49.1 °F -27.4 °F 76% 30.18 in 10.0 mi WNW 17.3 mph - N/A   Overcast
7:35 AM -22.0 °F -48.4 °F -27.4 °F 76% 30.18 in 10.0 mi WNW 16.1 mph - N/A   Partly Cloudy
7:55 AM -20.2 °F -47.5 °F -27.4 °F 69% 30.18 in 8.0 mi WNW 18.4 mph - N/A   Clear
8:15 AM -20.2 °F -46.8 °F -25.6 °F 76% 30.18 in 7.0 mi WNW 17.3 mph 23.0 mph N/A   Clear
8:35 AM -20.2 °F -46.0 °F -25.6 °F 76% 30.19 in 9.0 mi WNW 16.1 mph - N/A   Clear
8:55 AM -20.2 °F -46.0 °F -25.6 °F 76% 30.18 in 9.0 mi WNW 16.1 mph - N/A   Clear
9:15 AM -20.2 °F -45.2 °F -25.6 °F 76% 30.18 in 7.0 mi WNW 15.0 mph - N/A   Clear
9:35 AM -18.4 °F -42.9 °F -25.6 °F 70% 30.18 in 10.0 mi WNW 15.0 mph - N/A   Clear
9:55 AM -18.4 °F -45.2 °F -25.6 °F 70% 30.18 in 9.0 mi WNW 18.4 mph - N/A   Clear
10:15 AM -18.4 °F -47.1 °F -25.6 °F 70% 30.18 in 4.0 mi WNW 21.9 mph - N/A   Haze
10:35 AM -18.4 °F -45.9 °F -23.8 °F 76% 30.19 in 2.5 mi WNW 19.6 mph 26.5 mph N/A   Haze
10:55 AM -16.6 °F -43.5 °F -23.8 °F 70% 30.19 in 3.0 mi WNW 19.6 mph 24.2 mph N/A   Haze
11:15 AM -16.6 °F -42.1 °F -22.0 °F 76% 30.20 in 3.0 mi NW 17.3 mph - N/A   Haze
11:35 AM -16.6 °F -43.5 °F -22.0 °F 76% 30.19 in 2.0 mi NW 19.6 mph - N/A   Haze
11:55 AM -16.6 °F -44.8 °F -22.0 °F 76% 30.19 in 2.0 mi NW 21.9 mph - N/A   Haze
12:15 PM -16.6 °F -42.1 °F -22.0 °F 76% 30.19 in 3.0 mi NW 17.3 mph - N/A   Haze
12:35 PM -14.8 °F -42.4 °F -22.0 °F 70% 30.18 in 2.0 mi NW 21.9 mph - N/A   Haze
12:55 PM -14.8 °F -41.8 °F -20.2 °F 77% 30.17 in 2.5 mi NW 20.7 mph - N/A   Haze
1:15 PM -14.8 °F -41.8 °F -22.0 °F 70% 30.17 in 3.0 mi NW 20.7 mph - N/A   Haze
1:35 PM -14.8 °F -40.5 °F -22.0 °F 70% 30.18 in 7.0 mi NW 18.4 mph 21.9 mph N/A   Overcast
1:55 PM -13.0 °F -37.5 °F -22.0 °F 64% 30.17 in 9.0 mi NW 17.3 mph - N/A   Mostly Cloudy
2:15 PM -13.0 °F -36.8 °F -20.2 °F 70% 30.18 in 10.0 mi NW 16.1 mph 21.9 mph N/A   Mostly Cloudy
2:35 PM -13.0 °F -36.0 °F -20.2 °F 70% 30.17 in 10.0 mi NW 15.0 mph - N/A   Scattered Clouds
2:55 PM -13.0 °F -35.2 °F -20.2 °F 70% 30.18 in 10.0 mi NW 13.8 mph - N/A   Scattered Clouds
3:15 PM -13.0 °F -33.4 °F -20.2 °F 70% 30.18 in 10.0 mi NW 11.5 mph - N/A   Overcast
3:35 PM -13.0 °F -34.3 °F -20.2 °F 70% 30.18 in 10.0 mi NW 12.7 mph - N/A   Mostly Cloudy
3:55 PM -13.0 °F -35.2 °F -20.2 °F 70% 30.18 in 10.0 mi NW 13.8 mph - N/A   Partly Cloudy
4:15 PM -13.0 °F -35.2 °F -20.2 °F 70% 30.18 in 10.0 mi NW 13.8 mph - N/A   Clear
4:35 PM -13.0 °F -31.3 °F -20.2 °F 70% 30.18 in 10.0 mi NW 9.2 mph - N/A   Clear
4:55 PM -14.8 °F -36.6 °F -22.0 °F 70% 30.18 in 10.0 mi NW 12.7 mph - N/A   Clear
5:15 PM -14.8 °F -35.6 °F -22.0 °F 70% 30.18 in 10.0 mi NW 11.5 mph - N/A   Clear
5:35 PM -16.6 °F -35.7 °F -22.0 °F 76% 30.17 in 10.0 mi WNW 9.2 mph - N/A   Clear
5:55 PM -18.4 °F -39.1 °F -23.8 °F 76% 30.18 in 10.0 mi WNW 10.4 mph - N/A   Clear
6:15 PM -20.2 °F -40.1 °F -25.6 °F 76% 30.18 in 10.0 mi West 9.2 mph - N/A   Clear
6:35 PM -20.2 °F -35.5 °F -25.6 °F 76% 30.18 in 10.0 mi WNW 5.8 mph - N/A   Clear
6:55 PM -20.2 °F -38.8 °F -25.6 °F 76% 30.18 in 10.0 mi West 8.1 mph - N/A   Clear
7:15 PM -20.2 °F -40.1 °F -25.6 °F 76% 30.18 in 10.0 mi WNW 9.2 mph - N/A   Clear
7:35 PM -20.2 °F -41.3 °F -25.6 °F 76% 30.18 in 10.0 mi WNW 10.4 mph - N/A   Clear
7:55 PM -18.4 °F -39.1 °F -23.8 °F 76% 30.18 in 10.0 mi NW 10.4 mph - N/A   Clear
8:15 PM -18.4 °F -39.1 °F -25.6 °F 70% 30.18 in 10.0 mi WNW 10.4 mph - N/A   Clear
8:35 PM -18.4 °F -40.2 °F -25.6 °F 70% 30.18 in 10.0 mi WNW 11.5 mph - N/A   Clear
8:55 PM -20.2 °F -41.3 °F -25.6 °F 76% 30.18 in 10.0 mi WNW 10.4 mph - N/A   Clear
9:15 PM -18.4 °F -39.1 °F -25.6 °F 70% 30.17 in 10.0 mi NW 10.4 mph - N/A   Clear
9:35 PM -18.4 °F -40.2 °F -25.6 °F 70% 30.18 in 10.0 mi WNW 11.5 mph - N/A   Clear
9:55 PM -22.0 °F -44.7 °F -27.4 °F 76% 30.18 in 10.0 mi West 11.5 mph - N/A   Clear
10:35 PM -22.0 °F -37.7 °F -27.4 °F 76% 30.18 in 10.0 mi WNW 5.8 mph - N/A   Clear
10:55 PM -20.2 °F -38.8 °F -25.6 °F 76% 30.18 in 10.0 mi NW 8.1 mph - N/A   Clear
11:15 PM -22.0 °F -41.0 °F -27.4 °F 76% 30.18 in 10.0 mi West 8.1 mph - N/A   Clear
11:35 PM -22.0 °F -35.6 °F -27.4 °F 76% 30.19 in 10.0 mi WNW 4.6 mph - N/A   Clear
11:55 PM -23.8 °F -37.7 °F -29.2 °F 76% 30.20 in 10.0 mi WNW 4.6 mph - N/A   Clear